This demonstration page uses our WeatherBlox Daily Observations layout. Learn more.

Left ArrowRight Arrow

53.62937, 11.41316

Hourly Observations for August 18, 2021

Temp ( °F °C ) Dew Point ( °F °C ) Humidity (%) Winds ( mph kmh ) Pressure ( in mb ) Visibility ( mi km ) Precip ( " mm )
7:50 am 07:50 Mostly Cloudy 57 14 54 12 88 88 SSW 13 20 29.80 1009 30 48 N/A
8:20 am 08:20 Mostly Cloudy 57 14 54 12 88 88 SSW 12 19 29.80 1009 30 48 N/A
8:50 am 08:50 Mostly Cloudy with Drizzle 57 14 55 13 94 94 SSW 14 22 29.80 1009 3 5 N/A
9:20 am 09:20 Mostly Cloudy 59 15 55 13 88 88 SSW 13 20 29.80 1009 30 48 N/A
9:50 am 09:50 Mostly Cloudy with Drizzle 57 14 57 14 100 100 SSW 12 19 29.80 1009 6 9 N/A
10:20 am 10:20 Mostly Cloudy with Drizzle 59 15 57 14 94 94 SSW 14 22 29.80 1009 4 7 N/A
10:50 am 10:50 Mostly Cloudy with Drizzle 59 15 57 14 94 94 SW 13 20 29.80 1009 3 5 N/A
11:20 am 11:20 Mostly Cloudy 59 15 57 14 94 94 SW 13 20 29.80 1009 30 48 N/A
11:50 am 11:50 Mostly Cloudy with Showers Nearby 61 16 57 14 88 88 SSW 16 26 29.80 1009 30 48 N/A
12:20 pm 12:20 Mostly Cloudy with Showers Nearby 63 17 55 13 77 77 SW 15 24 29.80 1009 30 48 N/A
12:50 pm 12:50 Mostly Cloudy 63 17 57 14 83 83 SW 12 19 29.80 1009 30 48 N/A
1:20 pm 13:20 Mostly Cloudy with Light Rain 63 17 55 13 77 77 WSW 13 20 29.80 1009 30 48 N/A
1:50 pm 13:50 Partly Cloudy 63 17 55 13 77 77 SW 13 20 29.80 1009 30 48 N/A
2:20 pm 14:20 Partly Cloudy 64 18 55 13 73 73 SW 12 19 29.80 1009 30 48 N/A
2:50 pm 14:50 Partly Cloudy 66 19 54 12 64 64 WSW 13 20 29.80 1009 30 48 N/A
3:20 pm 15:20 Mostly Cloudy with Showers Nearby 66 19 54 12 64 64 WSW 13 20 29.80 1009 30 48 N/A
3:50 pm 15:50 Partly Cloudy 66 19 54 12 64 64 SW 16 26 29.80 1009 30 48 N/A
4:20 pm 16:20 Partly Cloudy 66 19 55 13 68 68 SW 12 19 29.80 1009 30 48 N/A
4:50 pm 16:50 Partly Cloudy 66 19 55 13 68 68 SW 17 28 29.80 1009 30 48 N/A
5:20 pm 17:20 Partly Cloudy 66 19 55 13 68 68 SW 14 22 29.80 1009 30 48 N/A
5:50 pm 17:50 Mostly Cloudy 64 18 55 13 73 73 WSW 15 24 29.80 1009 30 48 N/A
6:20 pm 18:20 Partly Cloudy 64 18 55 13 73 73 SW 13 20 29.80 1009 30 48 N/A
6:50 pm 18:50 Partly Cloudy 64 18 55 13 73 73 SW 14 22 29.77 1008 30 48 N/A
7:20 pm 19:20 Partly Cloudy 64 18 55 13 73 73 SW 14 22 29.77 1008 30 48 N/A
7:50 pm 19:50 Partly Cloudy 64 18 55 13 73 73 SW 10 17 29.77 1008 30 48 N/A
8:20 pm 20:20 Mostly Cloudy 64 18 55 13 73 73 SW 10 17 29.77 1008 30 48 N/A
8:50 pm 20:50 Partly Cloudy 63 17 57 14 83 83 SW 12 19 29.77 1008 30 48 N/A
9:20 pm 21:20 Partly Cloudy 63 17 57 14 83 83 SW 9 15 29.77 1008 30 48 N/A
9:50 pm 21:50 Mostly Clear 63 17 55 13 77 77 SW 15 24 29.77 1008 30 48 N/A

Powered by AerisWeather